Bridgeport, WV

3:23 AM EDT on September 01, 2016 (GMT -0400)
Benedum

Weather History for KCKB - November, 2012

Change the Weather History Date:

Thursday, November 22, 2012

  Actual Average Record
Temperature  
Mean Temperature 44 °F -  
Max Temperature 61 °F 48 °F 75 °F (1931)
Min Temperature 27 °F 29 °F 12 °F (1951)
Degree Days  
Heating Degree Days 21    
Moisture  
Dew Point 27 °F    
Average Humidity 60    
Maximum Humidity 89    
Minimum Humidity 27    
Precipitation  
Precipitation 0.00 in - - ()
Sea Level Pressure  
Sea Level Pressure 30.19 in    
Wind  
Wind Speed 0 mph (North)    
Max Wind Speed 0 mph    
Max Gust Speed -    
Visibility 10 miles    
Events      
Averages and records for this station are not official NWS values.
T = Trace of Precipitation, MM = Missing Value Source: NWS Daily Summary

Daily Weather History Graph

Daily Weather History Graph

Search for Another Location

Airport or City:

Trip Planner

Search our weather history database for the weather conditions in past years. The results will help you decide how hot, cold, wet, or windy it might be!

Date:

Astronomy

Nov. 22, 2012 Rise Set
Actual Time 7:12 AM EST 5:01 PM EST
Civil Twilight 6:43 AM EST 5:30 PM EST
Nautical Twilight 6:10 AM EST 6:03 PM EST
Astronomical Twilight 5:38 AM EST 6:35 PM EST
Moon 1:44 PM EST (11/22) 1:32 AM EST (11/22)
Length of Visible Light 10h 46m
Length of Day
9h 48m
Waxing Gibbous, 71% of the Moon is Illuminated
Nov 22
Waxing Gibbous
Nov 28
Full
Dec 6
Last Quarter
Dec 13
New
Dec 20
First Quarter

Hourly Weather History & Observations

Time (EST) Temp. Dew Point Humidity Pressure Visibility Wind Dir Wind Speed Gust Speed Precip Events Conditions
12:53 AM 33.1 °F 27.0 °F 78% 30.22 in 10.0 mi Calm Calm - N/A   Clear
1:53 AM 30.9 °F 26.1 °F 82% 30.23 in 10.0 mi Calm Calm - N/A   Clear
2:53 AM 28.9 °F 25.0 °F 85% 30.23 in 10.0 mi Calm Calm - N/A   Clear
3:53 AM 28.9 °F 25.0 °F 85% 30.22 in 10.0 mi Calm Calm - N/A   Clear
4:53 AM 28.9 °F 25.0 °F 85% 30.24 in 9.0 mi Calm Calm - N/A   Clear
5:53 AM 28.0 °F 24.1 °F 85% 30.26 in 9.0 mi Calm Calm - N/A   Clear
6:53 AM 27.0 °F 24.1 °F 89% 30.27 in 9.0 mi Calm Calm - N/A   Clear
7:53 AM 28.9 °F 25.0 °F 85% 30.28 in 8.0 mi Calm Calm - N/A   Clear
8:53 AM 36.0 °F 28.9 °F 76% 30.27 in 9.0 mi Calm Calm - N/A   Clear
9:53 AM 43.0 °F 30.9 °F 62% 30.27 in 10.0 mi Calm Calm - N/A   Clear
10:53 AM 50.0 °F 30.0 °F 46% 30.25 in 10.0 mi Calm Calm - N/A   Clear
11:53 AM 54.0 °F 28.9 °F 38% 30.22 in 10.0 mi Calm Calm - N/A   Clear
12:53 PM 59.0 °F 27.0 °F 29% 30.19 in 10.0 mi Calm Calm - N/A   Clear
1:53 PM 60.1 °F 27.0 °F 28% 30.17 in 10.0 mi Calm Calm - N/A   Clear
2:53 PM 61.0 °F 28.0 °F 29% 30.15 in 10.0 mi Calm Calm - N/A   Clear
3:53 PM 61.0 °F 27.0 °F 27% 30.14 in 10.0 mi Calm Calm - N/A   Clear
4:53 PM 57.0 °F 27.0 °F 32% 30.14 in 10.0 mi Calm Calm - N/A   Clear
5:53 PM 53.1 °F 27.0 °F 37% 30.14 in 10.0 mi Calm Calm - N/A   Clear
6:53 PM 48.0 °F 27.0 °F 44% 30.14 in 10.0 mi Calm Calm - N/A   Clear
7:53 PM 43.0 °F 28.0 °F 56% 30.14 in 10.0 mi Calm Calm - N/A   Clear
8:53 PM 42.1 °F 28.0 °F 58% 30.12 in 10.0 mi Calm Calm - N/A   Clear
9:53 PM 39.0 °F 27.0 °F 62% 30.11 in 10.0 mi Calm Calm - N/A   Clear
10:53 PM 37.0 °F 28.0 °F 70% 30.09 in 10.0 mi Calm Calm - N/A   Clear
11:53 PM 35.1 °F 28.0 °F 76% 30.06 in 10.0 mi Calm Calm - N/A   Clear